Главная страница
METAR-TAF:

METAR-TAF

Аэропорты :

Leesburg, Виргиния, США

широта: 39-05N, долгота: 077-34W, высота над уровнем моря: 119 м

Текущие метеонаблюдения

Эта сводка был подготовлена 27 минут назад, в 09:55 UTC
Штиль
Температура 20°C
Влажность 94%
Давление 1013 hPa
Видимость: 16.1 км
ясное небо

METAR: KJYO 200955Z AUTO 00000KT 10SM CLR 20/19 A2990 RMK AO2

Время: 06:22 (10:22 UTC)


TAF: отсутствует

Метеонаблюдения и прогнозы для более 4000 аэропортов (сводки METAR и TAF).

Имеющиеся станции представлены на карте желтыми и красными точками.

Чтобы увидеть название станции, наведите на нее мышь.

Затем щелкните, чтобы увидеть метеонаблюдения и метеопрогнозы.

Управление картой: чтобы увеличить масштаб, щелкните зеленые кнопки с черным крестиком; чтобы уменьшить масштаб, щелкните зеленую кнопку с тире; для просмотра соседних карт щелкайте зеленые стрелки.


METAR-TAF: